Location: Newark
(23.3970°S, 47.6010°W)
Time: 05:25:19
(UTC+00:00)

deb Explorer IX - Pass Details

Date: 25 February 2020
Orbit: 548 x 1100 km, 38.8° (Epoch: 07 April)

Event Time Altitude Azimuth Distance (km) Brightness Sun altitude
Rises 05:37:14 0° 234° (SW) 3,920 - -43.8°
Reaches altitude 10° 05:40:06 10° 229° (SW) 2,966 - -43.3°
Maximum altitude 05:47:19 56° 152° (SSE) 1,265 - -42.0°
Exits shadow 05:51:29 24° 84° (E) 1,977 ? -41.3°
Drops below altitude 10° 05:54:02 10° 75° (ENE) 2,775 ? -40.8°
Sets 05:56:38 0° 70° (ENE) 3,652 ? -40.3°
